Location: ???????
(55.4362°N, 38.1183°E)
Time: 18:03:10
(UTC+00:00)

OPS 8737 - Pass Details

Date: 27 October 2021
Orbit: 356 x 1703 km, 63.3° (Epoch: 11 October)

Event Time Altitude Azimuth Distance (km) Brightness Sun altitude
Rises 17:11:31 0° 309° (NW) 2,199 9.0 -27.5°
Reaches altitude 10° 17:13:30 10° 316° (NW) 1,348 7.6 -27.8°
Enters shadow 17:13:44 12° 318° (NW) 1,257 7.4 -27.8°
